DG5TKE Weather Reports


time (UTC)temp
C
wind
direction
speed
KPH
gust
KPH
rain 1hr
cm
rain 24hr
cm
rain mn
cm
humidity
%
barometer
mb
20260901105006 22 233 8.0 19.3 0.00 0.18 0.00 58 1017.3
20260901104003 22 286 6.4 24.1 0.00 0.18 0.00 62 1017.2
20260901103217 22 262 6.4 20.9 0.00 0.18 0.00 61 1017.3
20260901102007 21 249 8.0 19.3 0.00 0.18 0.00 65 1017.3
20260901101003 21 259 9.7 22.5 0.00 0.18 0.00 62 1017.4
20260901100007 21 282 6.4 20.9 0.00 0.18 0.00 64 1017.5
20260901095006 21 249 6.4 19.3 0.00 0.18 0.00 64 1017.3
20260901094003 20 243 11.3 27.4 0.00 0.18 0.00 66 1017.4
20260901093003 20 235 6.4 20.9 0.00 0.18 0.00 66 1017.4
20260901092003 20 240 6.4 17.7 0.00 0.18 0.00 67 1017.5
20260901091006 20 256 8.0 19.3 0.00 0.18 0.00 66 1017.3
20260901090003 20 265 9.7 17.7 0.00 0.18 0.00 67 1017.5
20260901085003 20 238 6.4 20.9 0.00 0.18 0.00 68 1017.5
20260901084006 20 265 4.8 14.5 0.00 0.18 0.00 70 1017.5
20260901083006 19 250 4.8 14.5 0.00 0.18 0.00 71 1017.4
20260901082003 18 235 4.8 14.5 0.00 0.18 0.00 72 1017.4
20260901081003 18 215 8.0 19.3 0.00 0.18 0.00 73 1017.3
20260901080003 18 206 4.8 16.1 0.00 0.18 0.00 74 1017.2
20260901075006 18 205 6.4 11.3 0.00 0.18 0.00 75 1017.2
20260901074003 17 217 8.0 16.1 0.00 0.18 0.00 75 1017.1
20260901073003 17 218 6.4 17.7 0.00 0.18 0.00 76 1017.1
20260901072003 17 216 6.4 14.5 0.00 0.18 0.00 77 1017.0
20260901071003 17 212 8.0 20.9 0.00 0.18 0.00 77 1016.9
20260901070003 17 205 8.0 19.3 0.00 0.18 0.00 78 1017.0
20260901065003 17 192 8.0 20.9 0.00 0.18 0.00 78 1016.9
20260901064218 16 203 8.0 20.9 0.00 0.18 0.00 79 1016.9
20260901063006 16 216 3.2 20.9 0.00 0.20 0.00 80 1016.9
20260901062218 16 124 1.6 8.0 0.00 0.23 0.00 82 1017.0
20260901061006 16 132 3.2 9.7 0.00 0.23 0.00 84 1016.8
20260901060006 15 133 3.2 9.7 0.00 0.28 0.00 84 1016.8
20260901055003 15 148 3.2 8.0 0.00 0.30 0.00 85 1016.7
20260901054006 15 165 3.2 6.4 0.00 0.33 0.00 86 1016.7
20260901053003 14 235 3.2 9.7 0.00 0.41 0.00 85 1016.7
20260901052006 14 226 1.6 8.0 0.00 0.48 0.00 85 1016.6
20260901051006 14 181 3.2 6.4 0.00 0.58 0.00 84 1016.5
20260901050006 14 205 4.8 16.1 0.00 0.89 0.00 84 1016.4
20260901045006 14 221 4.8 14.5 0.00 1.07 0.00 85 1016.3
20260901044003 14 223 4.8 9.7 0.00 1.17 0.00 85 1016.2
20260901043006 14 192 4.8 14.5 0.00 1.17 0.00 86 1016.0
20260901042006 14 206 4.8 12.9 0.00 1.17 0.00 87 1016.0
20260901041221 14 200 4.8 9.7 0.00 1.17 0.00 87 1016.0
20260901040217 13 191 3.2 14.5 0.00 1.17 0.00 88 1015.9
20260901035003 13 176 1.6 8.0 0.00 1.17 0.00 88 1015.8
20260901034006 13 248 0.0 3.2 0.00 1.19 0.00 88 1015.7
20260901033217 13 347 1.6 3.2 0.00 1.24 0.00 89 1015.6
20260901032003 13 175 1.6 6.4 0.00 1.27 0.00 88 1015.5
20260901031006 13 184 3.2 11.3 0.00 1.30 0.00 88 1015.4
20260901030006 13 180 1.6 9.7 0.00 1.32 0.00 88 1015.4
20260901025006 13 177 3.2 4.8 0.00 1.32 0.00 88 1015.4
20260901024006 13 197 3.2 12.9 0.00 1.32 0.00 88 1015.4
20260901023008 13 192 4.8 9.7 0.00 1.32 0.00 88 1015.2
20260901022003 13 185 4.8 11.3 0.00 1.32 0.00 89 1015.2
20260901021006 13 177 4.8 11.3 0.00 1.32 0.00 89 1015.2
20260901020007 13 195 4.8 14.5 0.00 1.32 0.00 90 1015.1
20260901015006 13 192 3.2 14.5 0.00 1.32 0.00 90 1015.1
20260901014006 13 192 3.2 8.0 0.00 1.32 0.00 90 1015.0
20260901013003 13 193 1.6 12.9 0.00 1.32 0.00 90 1015.0
20260901012006 13 198 1.6 4.8 0.00 1.32 0.00 90 1014.9
20260901011006 13 199 3.2 8.0 0.00 1.32 0.00 90 1015.0
20260901010003 13 200 4.8 9.7 0.00 1.32 0.00 90 1014.8
20260901005006 13 200 1.6 8.0 0.00 1.32 0.00 91 1014.9
20260901004218 13 209 1.6 8.0 0.00 1.32 0.00 90 1014.9
20260901003006 13 345 0.0 6.4 0.00 1.32 0.00 90 1014.9
20260901002003 12 188 1.6 6.4 0.00 1.32 0.00 90 1014.9
20260901001003 12 215 1.6 6.4 0.00 1.32 0.00 90 1014.9
20260901000003 12 0 0.0 8.0 0.00 1.32 0.00 90 1014.9
20260831235003 13 0 0.0 0.0 0.00 1.32 0.00 89 1014.9
20260831234003 13 38 1.6 4.8 0.00 1.32 0.00 89 1014.8
20260831233006 13 2 0.0 4.8 0.00 1.32 0.00 89 1014.8
20260831232003 13 130 0.0 1.6 0.00 1.32 0.00 89 1014.7
20260831231217 13 181 1.6 6.4 0.00 1.32 0.00 88 1014.6
20260831230217 13 207 1.6 6.4 0.00 1.32 0.00 88 1014.5
20260831225003 13 0 0.0 0.0 0.00 1.32 0.00 88 1014.6
20260831224006 13 168 3.2 8.0 0.00 1.32 0.00 88 1014.6
20260831223006 13 184 6.4 11.3 0.00 1.32 0.00 88 1014.6
20260831222006 13 198 6.4 20.9 0.00 1.32 0.00 88 1014.5
20260831221003 13 191 1.6 12.9 0.00 1.32 0.00 88 1014.5
20260831220007 13 179 1.6 9.7 0.00 1.32 0.00 87 1014.6
20260831215217 13 185 1.6 6.4 0.00 1.32 1.32 87 1014.4
20260831214003 13 198 6.4 14.5 0.00 1.32 1.32 87 1014.2
20260831213006 13 200 6.4 14.5 0.00 1.32 1.32 87 1014.0
20260831212003 13 196 6.4 11.3 0.00 1.32 1.32 87 1013.8
20260831211006 13 204 4.8 9.7 0.00 1.32 1.32 87 1013.8
20260831210003 13 213 1.6 11.3 0.00 1.32 1.32 87 1013.6
20260831205003 13 154 3.2 6.4 0.00 1.32 1.32 87 1013.5
20260831204221 13 193 4.8 9.7 0.00 1.32 1.32 87 1013.3
20260831203218 13 199 8.0 17.7 0.00 1.32 1.32 86 1013.2
20260831202003 14 203 8.0 19.3 0.03 1.32 1.32 86 1013.1
20260831201003 14 206 8.0 17.7 0.05 1.32 1.32 86 1013.0
20260831200006 14 199 8.0 19.3 0.18 1.32 1.32 86 1012.9
20260831195006 14 197 4.8 22.5 0.18 1.32 1.32 85 1012.7
20260831194003 15 195 3.2 12.9 0.18 1.32 1.32 84 1012.7
20260831193006 15 210 6.4 14.5 0.18 1.32 1.32 82 1013.1
20260831192006 16 199 9.7 14.5 0.15 1.30 1.30 81 1013.0
20260831191006 17 206 12.9 25.7 0.13 1.27 1.27 77 1012.9
20260831190004 18 225 8.0 30.6 0.00 1.14 1.14 72 1012.9
20260831185008 18 212 6.4 14.5 0.00 1.14 1.14 72 1011.7
20260831184003 18 210 3.2 12.9 0.00 1.14 1.14 72 1011.6
20260831183006 18 206 3.2 11.3 0.00 1.14 1.14 71 1011.4
20260831182221 18 228 3.2 14.5 0.00 1.14 1.14 71 1011.5
20260831181222 18 215 1.6 9.7 0.00 1.14 1.14 71 1011.3
20260831180006 18 208 4.8 11.3 0.00 1.14 1.14 70 1011.3
20260831175006 18 219 3.2 12.9 0.00 1.14 1.14 70 1011.3
20260831174222 18 224 3.2 6.4 0.00 1.14 1.14 71 1011.3
20260831173006 18 211 3.2 11.3 0.00 1.14 1.14 72 1011.1
20260831172006 18 216 3.2 6.4 0.00 1.14 1.14 73 1011.1
20260831171221 18 205 4.8 8.0 0.00 1.14 1.14 72 1011.0
20260831170217 19 210 11.3 14.5 0.00 1.14 1.14 71 1011.1
20260831165003 20 218 11.3 29.0 0.00 1.14 1.14 68 1011.2
20260831164006 21 208 11.3 27.4 0.00 1.14 1.14 62 1011.0
20260831163008 21 211 11.3 29.0 0.00 1.14 1.14 61 1010.9
20260831162006 21 208 11.3 24.1 0.00 1.14 1.14 60 1010.5
20260831161006 22 210 14.5 41.8 0.00 1.14 1.14 59 1010.5
20260831160221 22 218 14.5 35.4 0.00 1.14 1.14 58 1010.3
20260831155006 22 208 12.9 25.7 0.00 1.14 1.14 58 1010.2
20260831154003 22 197 11.3 29.0 0.00 1.14 1.14 58 1010.1
20260831153220 22 207 12.9 29.0 0.00 1.14 1.14 59 1010.1
20260831152003 22 208 14.5 29.0 0.00 1.14 1.14 58 1010.1
20260831151006 22 188 14.5 29.0 0.00 1.14 1.14 59 1009.9
20260831150220 22 193 14.5 37.0 0.00 1.14 1.14 57 1010.1
20260831145006 23 194 11.3 27.4 0.00 1.14 1.14 56 1009.9
20260831144003 23 204 12.9 24.1 0.00 1.14 1.14 56 1010.0
20260831143003 23 203 16.1 30.6 0.00 1.14 1.14 56 1010.2
20260831142006 23 204 16.1 35.4 0.00 1.14 1.14 56 1010.3
20260831141006 23 207 16.1 35.4 0.00 1.14 1.14 55 1010.4
20260831140006 23 214 12.9 33.8 0.00 1.14 1.14 54 1010.3
20260831135006 22 220 11.3 27.4 0.00 1.14 1.14 58 1010.4
20260831134220 23 222 12.9 22.5 0.00 1.14 1.14 57 1010.5
20260831133006 23 224 12.9 32.2 0.00 1.14 1.14 56 1010.4
20260831132006 23 211 11.3 27.4 0.00 1.14 1.14 58 1010.5
20260831131217 23 206 12.9 24.1 0.00 1.14 1.14 59 1010.5
20260831130222 22 232 14.5 24.1 0.00 1.14 1.14 60 1010.6
20260831125003 22 228 14.5 30.6 0.00 1.14 1.14 59 1010.7
20260831124006 22 230 16.1 33.8 0.00 1.14 1.14 59 1010.6
20260831123007 23 231 9.7 29.0 0.00 1.14 1.14 58 1010.6
20260831122003 22 218 12.9 25.7 0.00 1.14 1.14 61 1010.6
20260831121003 22 214 12.9 29.0 0.00 1.14 1.14 59 1010.7
20260831120006 22 228 16.1 32.2 0.00 1.14 1.14 61 1010.6
20260831115003 22 214 11.3 30.6 0.00 1.14 1.14 58 1010.6
20260831114003 22 239 11.3 25.7 0.00 1.14 1.14 61 1010.8
20260831113003 22 219 11.3 32.2 0.00 1.14 1.14 61 1010.8
20260831112223 22 218 11.3 33.8 0.00 1.14 1.14 62 1010.9
20260831111003 22 216 12.9 29.0 0.00 1.14 1.14 63 1010.8
20260831110006 22 222 11.3 30.6 0.00 1.14 1.14 65 1010.9